Torna al catalogo

FREGAT DEB

LostUNKNOWN
NORAD 46399·DEBRIS·🇷🇺 Russia

Lanciato Jul 18, 2011 da Baikonur Cosmodrome

Loading…

Prossimi Passaggi (prossime 24 ore)

TLE

ObsoletoSource: Space-Track

Epoca: Jan 25, 2022, 15:16 UTC

1 46399U 11037LE  22025.63673894 -.00000047  00000-0  10000-4 0  9997
2 46399  50.7011 154.0751 2383353 123.8549 347.2516  9.20314347    11

Traccia FREGAT DEB in tempo reale con AllMySat

Download on the App Store